Location: ActonStarParty
(42.4766°N, 71.4538°W)
Time: 00:40:01
(UTC-04:00)

ISS - Visible Passes

Search period start: 26 May 2016 00:00
Search period end: 05 June 2016 00:00
Orbit: 402 x 404 km, 51.6° (Epoch: 25 May)

Date Brightness Start Highest point End Pass type
(mag) Time Alt. Az. Time Alt. Az. Time Alt. Az.
26 May -1.1 00:03:15 26° NNW 00:03:26 26° NNW 00:06:15 10° NE visible
26 May -0.2 01:38:31 10° NW 01:40:41 16° N 01:42:50 10° NE visible
26 May -1.0 03:15:04 10° NW 03:17:54 27° NNE 03:20:45 10° E visible
26 May -2.6 21:31:14 10° SSW 21:34:09 30° SE 21:37:03 10° ENE visible
26 May -1.8 23:07:27 10° W 23:10:32 37° NNW 23:13:37 10° NE visible
27 May -0.3 00:45:24 10° NW 00:47:38 17° N 00:49:52 10° NE visible
27 May -0.6 02:22:23 10° NW 02:24:57 21° NNE 02:27:31 10° ENE visible
27 May -3.2 03:58:31 10° NW 04:01:48 79° NNE 04:05:03 10° ESE visible
27 May -2.9 22:14:27 10° WSW 22:17:42 62° NNW 22:20:57 10° NE visible
27 May -0.5 23:52:10 10° WNW 23:54:37 19° NNW 23:57:05 10° NE visible
28 May -0.3 01:29:38 10° NW 01:31:57 18° N 01:34:15 10° NE visible
28 May -2.2 03:05:49 10° NW 03:08:59 45° NNE 03:12:08 10° ESE visible
28 May -3.5 21:21:41 10° SW 21:24:56 72° SE 21:28:11 10° ENE visible
28 May -0.8 22:58:54 10° WNW 23:01:38 24° NNW 23:04:23 10° NE visible
29 May -0.2 00:36:44 10° NW 00:38:54 16° N 00:41:04 10° NE visible
29 May -1.3 02:13:10 10° NW 02:16:06 30° NNE 02:19:01 10° E visible
29 May -3.1 03:49:30 10° WNW 03:52:38 44° SW 03:55:45 10° SSE visible
29 May -1.5 22:05:41 10° W 22:08:42 33° NNW 22:11:43 10° NE visible
29 May -0.2 23:43:40 10° NW 23:45:51 17° N 23:48:03 10° NE visible
30 May -0.8 01:20:30 10° NW 01:23:09 22° NNE 01:25:47 10° ENE visible
30 May -3.5 02:56:39 10° WNW 02:59:55 86° SW 03:03:11 10° SE visible
30 May -1.2 04:35:23 10° WSW 04:35:52 10° SW 04:36:20 10° SW visible
30 May -2.4 21:12:37 10° WSW 21:15:50 53° NNW 21:19:02 10° NE visible
30 May -0.4 22:50:26 10° WNW 22:52:49 18° N 22:55:11 10° NE visible
31 May -0.4 00:27:45 10° NW 00:30:08 18° N 00:32:30 10° ENE visible
31 May -1.8 02:03:55 10° NW 02:05:55 32° NNW 02:05:55 32° NNW visible
31 May -0.7 21:57:08 10° WNW 21:59:48 22° NNW 22:02:26 10° NE visible
31 May -0.3 23:34:53 10° NW 23:37:05 17° N 23:39:17 10° NE visible
01 Jun -1.3 01:11:13 10° NW 01:13:30 29° N 01:13:30 29° N visible
01 Jun -1.2 21:03:53 10° W 21:06:49 30° NNW 21:09:46 10° NE visible
01 Jun -0.3 22:41:50 10° NW 22:44:01 16° N 22:46:11 10° NE visible
02 Jun -1.1 00:18:33 10° NW 00:21:17 24° NNE 00:21:48 23° NNE visible
02 Jun -0.4 21:48:38 10° NW 21:50:57 18° N 21:53:15 10° NE visible
02 Jun -0.6 23:25:48 10° NW 23:28:16 19° NNE 23:30:20 12° NE visible
03 Jun -0.8 01:01:56 10° NW 01:02:55 18° NW 01:02:55 18° NW visible
03 Jun -0.6 20:55:20 10° WNW 20:57:54 21° NNW 21:00:29 10° NE visible
03 Jun -0.4 22:32:58 10° NW 22:35:12 17° N 22:37:26 10° NE visible
04 Jun -1.5 00:09:14 10° NW 00:11:35 32° N 00:11:35 32° N visible
04 Jun -0.4 21:39:57 10° NW 21:42:07 16° N 21:44:17 10° NE visible
04 Jun -1.4 23:16:32 10° NW 23:19:22 26° NNE 23:20:19 22° NE visible
